This is the latest recevied weather packets stored in our database for station/object K0CVS. If no packets are shown the sender has not sent any weather packets the latest 10 day(s).
| Time | Temp. | Humidity | Pressure | Rain* | Wind** | Luminosity | Snow |
|---|---|---|---|---|---|---|---|
| 1777471649 | 10° C | 74% | 1021.4 hPa | 0 mm | - | 38 W/m² | - |
| 1777471346 | 10° C | 73% | 1021.5 hPa | 0 mm | - | 36 W/m² | - |
| 1777471042 | 10° C | 74% | 1021.6 hPa | 0 mm | - | 36 W/m² | - |
| 1777470739 | 10° C | 75% | 1021.4 hPa | 0 mm | - | 36 W/m² | - |
| 1777470435 | 10° C | 75% | 1021.4 hPa | 0 mm | - | 47 W/m² | - |
| 1777470132 | 10° C | 76% | 1021.5 hPa | 0 mm | - | 44 W/m² | - |
| 1777469828 | 9.44° C | 75% | 1021.4 hPa | 0 mm | - | 32 W/m² | - |
| 1777469523 | 9.44° C | 77% | 1021.4 hPa | 0 mm | - | 32 W/m² | - |
| 1777469219 | 9.44° C | 77% | 1021.3 hPa | 0 mm | - | 31 W/m² | - |
| 1777468919 | 9.44° C | 77% | 1021.3 hPa | 0 mm | - | 57 W/m² | - |
| 1777468615 | 9.44° C | 77% | 1021.2 hPa | 0 mm | - | 71 W/m² | - |
| 1777468312 | 9.44° C | 77% | 1021 hPa | 0 mm | - | 85 W/m² | - |
| 1777468008 | 8.89° C | 79% | 1021.4 hPa | 0 mm | - | 89 W/m² | - |
| 1777467704 | 8.89° C | 78% | 1021.3 hPa | 0 mm | - | 106 W/m² | - |
| 1777467399 | 8.89° C | 79% | 1021.2 hPa | 0 mm | - | 60 W/m² | - |
| 1777467096 | 8.33° C | 81% | 1021.3 hPa | 0 mm | - | 89 W/m² | - |
| 1777466793 | 8.33° C | 81% | 1021.1 hPa | 0 mm | - | 55 W/m² | - |
| 1777466491 | 7.78° C | 82% | 1021.3 hPa | 0 mm | - | 53 W/m² | - |
| 1777466187 | 7.78° C | 82% | 1021.3 hPa | 0 mm | - | 23 W/m² | - |
| 1777465883 | 7.78° C | 83% | 1021.1 hPa | 0 mm | - | 22 W/m² | - |
| 1777465579 | 7.78° C | 83% | 1021.1 hPa | 0 mm | - | 21 W/m² | - |
| 1777465275 | 7.22° C | 83% | 1021 hPa | 0 mm | - | 19 W/m² | - |
| 1777464969 | 7.22° C | 83% | 1020.9 hPa | 0 mm | - | 18 W/m² | - |
| 1777464664 | 7.22° C | 84% | 1020.7 hPa | 0 mm | - | 15 W/m² | - |
| 1777464360 | 7.22° C | 84% | 1020.8 hPa | 0 mm | - | 14 W/m² | - |
* Rain latest hour (hover to see other rain measurements)
** Current wind speed in m/s (hover to see current wind gust speed)